Current weather by "City, St" or "zip code"  
 

Current Conditions: Buckley Air Force Base Airport, CO

Mostly Cloudy


41.0 F

Last Updated on Oct 24 2020, 9:58 am MDT
Humidity: 68%
Wind Speed: W 6.9 mph
Barometer 29.83 in
Dewpoint: 30.9 F
Visibility: 10.00 mi
Precip: --
Heat Index: NA
Wind Chill: 36 F
Current conditions at:

Buckley Air Force Base Airport, CO (KBKF)

Lat: 39.71331 Lon: 104.75806

Local Radar Image active severe weather and emergency alerts image image weather storm and storm spotter reports image weather observation monitoring service image
Local
Radar
Active
Alerts
Storm Reports Obs
Monitoring

Sign-up For Email & Text Message Weather Alert Notification Services



Advertise Here

Observation History for Buckley Air Force Base Airport, CO


Time Wind
(mph)
Vis
(mi)
Weather Precip (in) Temperature (F) Relative
Humidity
Wind
Chill
(F)
Heat
Index
(F)
Pressure
Air Dwpt altimeter
(in)
sea level
(mb)
Rmks
9:58 am MDT W 6.9 10.00 Mostly Cloudy -- 41.0 30.9 68% 36 NA 29.83 1010.5
8:58 am MDT S 6.9 10.00 Mostly Cloudy -- 30.0 27.3 91% 23 NA 29.83 1011.9
7:58 am MDT E 5.8 10.00 Mostly Cloudy -- 23.0 21.4 93% 16 NA 29.82 1012.6
5:58 am MDT NE 3.5 10.00 A Few Clouds -- 22.0 20.1 91% NA NA 29.82 1012.1
4:58 am MDT N 8.1 G 24.2 10.00 A Few Clouds -- 22.0 20.1 92% 13 NA 29.84 1012.3
3:58 am MDT S 9.2 10.00 A Few Clouds -- 22.0 19.6 92% 12 NA 29.85 1013.1
2:58 am MDT N 0.0 10.00 A Few Clouds -- 21.0 18.7 91% NA NA 29.91 1015.3
1:58 am MDT N 0.0 10.00 A Few Clouds -- 22.0 19.4 91% NA NA 29.94 1016.8
12:58 am MDT SW 4.6 10.00 A Few Clouds -- 23.0 20.5 89% 17 NA 29.97 1017.9
11:58 pm MDT SW 4.6 10.00 A Few Clouds -- 26.0 20.3 80% 20 NA 30.00 1018.4
10:58 pm MDT N 0.0 10.00 A Few Clouds -- 25.0 20.5 82% NA NA 30.04 1020.4
9:58 pm MDT SW 9.2 10.00 A Few Clouds -- 28.0 21.2 77% 19 NA 30.04 1020.4
8:58 pm MDT S 10.4 10.00 A Few Clouds -- 27.0 21.0 77% 17 NA 30.06 1021.6
6:58 pm MDT S 11.5 10.00 Partly Cloudy -- 29.0 21.2 73% 19 NA 30.14 1023.9
5:58 pm MDT S 6.9 10.00 Mostly Cloudy -- 32.0 22.5 68% 26 NA 30.16 1024.1
4:58 pm MDT S 6.9 10.00 Mostly Cloudy -- 33.0 23.2 67% 27 NA 30.18 1024.8
3:58 pm MDT S 6.9 10.00 Mostly Cloudy -- 33.0 24.4 71% 27 NA 30.19 1025.1
2:58 pm MDT SE 3.5 10.00 Mostly Cloudy -- 31.0 27.0 83% NA NA 30.22 1026.2
1:58 pm MDT SE 5.8 10.00 Overcast -- 29.0 25.7 88% 23 NA 30.26 1028.1
12:58 pm MDT N 0.0 10.00 Overcast -- 28.0 23.0 82% NA NA 30.31 1029.9
11:58 am MDT N 0.0 10.00 Mostly Cloudy -- 27.0 23.2 84% NA NA 30.33 1030.6

Regional Weather Observation


Denver, Denver International Airport, CO (KDEN)

Mostly Cloudy
37.0 F

Erie Municipal Airport, CO (KEIK)

Fair
31.0 F

Buckley Air Force Base Airport, CO (KBKF)

Mostly Cloudy
41.0 F

Denver Nexrad, CO (KFTG)

Overcast
30.0 F

Denver - Centennial Airport, CO (KAPA)

Partly Cloudy
46.0 F

Boulder Municipal Airport, CO (KBDU)

Fair
28.0 F